Kuchera_Ratio
0.0 0.0 0.0 0.0 0.0 0.0 0.0 0.0 0.0 0.0 0.0 0.0 0.0 0.0 0.0 0.0 0.0 0.0 0.0 0.0 0.0 0.0 0.0 0.0 0.0 0.0 0.0 0.0 0.0 0.0 0.0 0.0 0.0 0.0 0.0 0.0 0.0 0.0
2.1 1.2 0.5 0.0 0.0 0.0 0.0 0.0 0.0 0.0 0.0 0.0 0.0 0.0 0.0 0.0 0.0 0.0 0.0 0.0 0.0 0.0 0.0 0.0 0.0 0.0 0.0 0.0 0.0 0.0 0.0 0.0 0.0 0.0 0.0 0.0 0.0 0.0
4.7 3.9 3.3 2.9 2.3 1.8 1.5 1.5 0.9 0.3 0.0 0.0 0.0 0.0 0.0 0.0 0.0 0.0 0.0 0.0 0.0 0.0 0.0 0.0 0.0 0.0 0.0 0.0 0.0 0.0 0.0 0.0 0.0 0.0 0.0 0.0 0.0 0.0
6.7 5.9 5.7 1.5 4.9 4.6 4.0 3.7 3.4 2.4 1.4 0.0 0.0 0.2 0.4 0.0 0.0 0.0 0.0 0.0 0.0 0.0 0.0 0.0 0.0 0.0 0.0 0.0 0.0 0.0 0.0 0.0 0.0 0.0 0.0 0.0 0.0 0.0
8.1 8.4 8.0 7.3 6.8 6.7 6.4 6.2 5.9 3.4 4.4 2.9 0.6 0.0 0.0 0.0 0.0 0.0 0.0 0.0 0.0 0.0 0.0 0.0 0.0 0.0 0.0 0.0 0.0 0.0 0.0 0.0 0.0 0.0 0.0 0.0 0.0 0.0
7.9 7.8 7.8 8.1 8.8 8.8 7.9 8.0 6.6 6.8 6.6 5.6 4.0 2.1 1.2 1.0 0.6 0.0 0.0 0.0 0.0 0.0 0.0 0.0 0.0 0.0 0.0 0.0 0.0 0.0 0.0 0.0 0.0 0.0 0.0 0.0 0.0 0.0
8.8 7.1 5.6 4.7 1.1 2.0 4.0 8.3 8.6 9.0 8.6 7.9 7.3 5.6 4.1 3.5 3.0 2.2 0.5 0.0 0.0 0.0 0.0 0.0 0.0 0.0 0.0 0.0 0.0 0.0 0.0 0.0 0.0 0.0 0.0 0.0 0.0 0.0
10.1 8.9 7.5 5.0 4.3 0.3 0.0 0.0 1.3 8.9 10.2 9.6 8.8 8.3 6.9 5.9 5.0 4.1 3.0 1.6 0.0 0.0 0.0 0.0 0.0 0.0 0.0 0.0 0.0 0.0 0.0 0.0 0.0 0.0 0.0 0.0 0.0 0.0
9.9 9.7 8.3 3.2 5.7 6.8 4.5 1.8 2.6 1.0 1.0 7.4 10.6 10.2 9.0 9.2 7.7 6.6 6.2 4.9 3.7 2.5 2.3 0.0 0.0 0.0 0.0 0.0 0.0 0.0 0.0 0.0 0.0 0.0 0.0 0.0 0.0 0.0
10.4 10.4 10.6 9.9 8.8 7.1 8.2 9.0 8.8 8.8 8.2 6.2 8.5 8.6 7.3 5.4 5.1 5.4 7.9 7.7 6.5 6.5 6.1 2.0 1.8 0.0 0.0 0.0 0.0 0.0 0.0 0.0 0.0 0.0 0.0 0.0 0.0 0.0
10.0 10.1 10.2 10.5 6.2 3.3 8.5 11.1 11.4 10.1 4.0 2.4 2.3 2.2 2.0 2.2 3.7 8.5 11.8 10.7 9.0 8.5 8.5 7.9 6.0 3.0 1.9 0.6 2.2 0.0 0.0 0.0 0.0 0.0 0.0 0.0 0.0 0.0
10.9 9.7 6.9 7.9 5.3 4.3 10.3 13.5 14.2 12.3 11.6 10.9 10.3 10.1 8.7 10.3 6.2 10.3 11.7 11.9 11.0 9.7 9.3 9.9 7.3 7.5 4.4 2.5 3.4 3.7 4.7 0.8 0.0 0.0 0.0 0.0 0.0 0.0
14.4 13.2 10.5 8.0 6.9 6.4 5.6 13.1 12.6 10.4 11.2 12.3 12.6 12.7 12.2 12.2 11.3 11.4 11.4 12.9 12.7 12.3 10.5 11.1 9.4 10.1 10.1 6.0 3.8 5.0 6.0 6.4 5.1 4.4 1.2 0.0 0.0 0.0
14.0 14.3 14.1 9.8 8.4 8.2 10.6 9.1 8.0 11.7 13.4 13.7 13.7 13.6 13.2 13.4 13.4 13.1 12.7 12.4 12.0 12.5 11.0 11.5 13.0 13.3 12.3 8.7 6.4 6.8 8.8 8.4 7.8 7.9 5.5 2.5 0.3 0.0
13.8 14.8 12.1 11.1 12.1 14.3 12.4 12.6 13.6 14.4 14.4 15.1 15.3 15.0 14.3 14.1 13.4 13.1 12.6 12.3 12.4 12.1 10.1 11.2 12.5 12.8 13.2 12.4 10.6 9.7 11.1 9.2 9.7 9.7 9.1 7.8 8.1 6.4
12.5 15.5 16.0 16.0 15.2 17.0 18.8 19.0 19.2 17.0 16.0 16.6 16.5 15.7 14.5 14.3 14.5 13.6 14.8 14.4 14.9 14.5 12.0 11.5 12.1 12.6 14.1 13.9 13.0 12.9 13.6 12.1 10.5 10.9 9.3 8.8 8.8 6.7
16.0 17.0 18.2 18.8 19.2 19.6 19.8 19.9 19.9 19.9 19.8 20.0 19.4 17.6 16.7 16.2 15.9 15.1 15.1 15.6 16.8 16.5 15.7 13.6 12.4 12.5 13.0 13.8 14.0 14.2 13.3 12.6 12.6 12.3 11.4 8.4 8.2 8.5
18.2 18.5 19.2 20.2 20.4 20.3 20.3 20.3 20.3 20.1 20.1 20.2 20.3 20.2 19.8 19.3 18.5 16.8 16.7 17.2 17.6 17.2 16.7 15.5 15.2 16.0 16.1 14.1 11.3 14.4 13.2 12.6 12.5 12.0 12.1 10.5 8.8 11.3
18.2 19.0 19.8 20.8 21.0 20.6 20.6 20.7 20.7 20.5 20.2 20.4 20.4 20.5 21.2 20.7 20.2 19.9 19.4 19.1 18.6 18.2 17.4 15.9 16.8 16.0 15.1 13.9 12.9 9.3 13.4 13.0 12.6 12.9 12.9 12.4 11.2 12.0
17.9 19.0 20.3 20.9 20.6 20.8 20.7 20.8 20.8 20.2 20.1 20.3 20.3 20.7 21.3 21.8 21.5 21.0 20.4 19.9 19.6 19.1 18.8 18.5 17.8 17.0 16.0 15.2 13.8 13.5 12.8 14.3 14.0 13.8 13.6 12.1 10.2 6.5
18.4 19.3 19.6 20.3 20.5 20.5 20.6 20.7 20.6 20.2 20.4 20.3 20.3 20.8 21.2 22.4 22.1 21.7 21.4 19.7 19.1 19.2 18.6 18.9 18.4 15.4 16.9 16.3 15.9 15.5 14.8 11.4 11.2 13.1 13.5 14.7 14.2 13.3
18.7 19.2 19.5 19.7 20.2 20.3 20.4 20.4 20.2 20.0 19.6 19.7 20.0 20.2 20.5 21.4 22.1 22.5 22.3 21.6 21.1 20.3 19.5 19.4 19.0 18.5 18.1 17.5 17.0 16.7 15.6 15.3 12.4 10.3 9.3 10.5 14.0 14.9
18.2 18.8 19.3 19.4 20.0 20.2 20.3 20.3 20.0 19.7 19.6 19.6 19.8 19.7 20.2 20.8 21.0 21.4 22.3 22.7 21.8 21.3 20.6 20.1 19.9 19.4 19.0 18.5 18.0 17.6 17.1 16.9 16.2 15.0 13.7 8.7 6.3 6.1